Lubbock, TX

3:55 PM CST on December 05, 2019 (GMT -0600)
Lubbock International

Weather History for KLBB - November, 2019

Change the Weather History Date:

Thursday, November 14, 2019

  Actual Average Record
Temperature  
Mean Temperature 42 °F 50 °F  
Max Temperature 54 °F 64 °F 85 °F (1933)
Min Temperature 30 °F 37 °F 4 °F (1976)
Degree Days  
Heating Degree Days 23 15  
Month to date heating degree days 235 168  
Since 1 July heating degree days 530 350  
Cooling Degree Days 0 0  
Month to date cooling degree days 0 0  
Year to date cooling degree days 2160 1801  
Moisture  
Dew Point 28 °F    
Average Humidity 63    
Maximum Humidity 82    
Minimum Humidity 38    
Precipitation  
Precipitation 0.00 in 0.03 in 1.57 in (1968)
Month to date precipitation 0.59 0.44  
Year to date precipitation 23.26 17.95  
Snow  
Snow 0.00 in 0.00 in 0.80 in (1997)
Month to date snowfall 0.0 0.3  
Since 1 July snowfall 0.1 0.3  
Since 1 September snowfall 0.1 0.3  
Snow Depth 0.00 in    
Sea Level Pressure  
Sea Level Pressure 30.29 in    
Wind  
Wind Speed 8 mph ()    
Max Wind Speed 22 mph    
Max Gust Speed 28 mph    
Visibility 10.0 miles    
Events      
T = Trace of Precipitation, MM = Missing Value Source: Averaged Metar Reports

Daily Weather History Graph

Daily Weather History Graph

Search for Another Location

Airport or City:

Astronomy

Nov. 14, 2019 Rise Set
Actual Time 7:18 AM CST 5:45 PM CST
Civil Twilight 6:51 AM CST 6:11 PM CST
Nautical Twilight 6:21 AM CST 6:41 PM CST
Astronomical Twilight 5:52 AM CST 7:10 PM CST
Moon 7:36 PM CST (11/14) 9:12 AM CST (11/14)
Length of Visible Light 11h 19m
Length of Day
10h 27m
Waning Gibbous, 95% of the Moon is Illuminated
Nov 14
Waning Gibbous
Nov 19
Last Quarter
Nov 26
New
Dec 4
First Quarter
Dec 11
Full

Hourly Weather History & Observations

Time (CST) Temp. Windchill Dew Point Humidity Pressure Visibility Wind Dir Wind Speed Gust Speed Precip Events Conditions
12:53 AM 37.0 °F 29.8 °F 28.9 °F 73% 30.05 in 10.0 mi North 10.4 mph - N/A   Clear
1:53 AM 37.0 °F 29.3 °F 28.9 °F 73% 30.08 in 10.0 mi North 11.5 mph - N/A   Clear
2:53 AM 36.0 °F 28.5 °F 28.0 °F 73% 30.11 in 10.0 mi North 10.4 mph - N/A   Clear
3:53 AM 34.0 °F 26.0 °F 26.1 °F 73% 30.13 in 10.0 mi North 10.4 mph - N/A   Clear
4:53 AM 35.1 °F 27.4 °F 26.1 °F 70% 30.15 in 10.0 mi NNE 10.4 mph - N/A   Clear
5:53 AM 34.0 °F 26.0 °F 26.1 °F 73% 30.19 in 10.0 mi NNE 10.4 mph - N/A   Clear
6:53 AM 32.0 °F 28.7 °F 25.0 °F 75% 30.26 in 10.0 mi NNE 3.5 mph - N/A   Clear
7:53 AM 33.1 °F 25.5 °F 27.0 °F 78% 30.31 in 10.0 mi NE 9.2 mph - N/A   Clear
8:53 AM 39.9 °F 31.4 °F 30.0 °F 68% 30.34 in 10.0 mi NE 16.1 mph - N/A   Clear
9:53 AM 44.1 °F 36.8 °F 30.9 °F 60% 30.37 in 10.0 mi ENE 16.1 mph 25.3 mph N/A   Clear
11:53 AM 51.1 °F - 28.9 °F 43% 30.37 in 10.0 mi ENE 15.0 mph - N/A   Clear
12:53 PM 52.0 °F - 30.0 °F 43% 30.35 in 10.0 mi ENE 8.1 mph 18.4 mph N/A   Clear
2:53 PM 53.1 °F - 28.9 °F 40% 30.32 in 10.0 mi Variable 6.9 mph - N/A   Clear
4:53 PM 52.0 °F - 28.9 °F 41% 30.33 in 10.0 mi East 4.6 mph - N/A   Clear
5:53 PM 48.0 °F - 28.9 °F 48% 30.36 in 10.0 mi East 4.6 mph - N/A   Clear
6:53 PM 43.0 °F 39.5 °F 28.9 °F 58% 30.39 in 10.0 mi ESE 5.8 mph - N/A   Clear
7:53 PM 43.0 °F 39.5 °F 28.9 °F 58% 30.41 in 10.0 mi SE 5.8 mph - N/A   Clear
8:53 PM 41.0 °F 38.0 °F 28.9 °F 62% 30.40 in 10.0 mi SE 4.6 mph - N/A   Clear
9:53 PM 39.0 °F 34.8 °F 28.9 °F 67% 30.41 in 10.0 mi SSE 5.8 mph - N/A   Clear
10:53 PM 39.0 °F 34.8 °F 28.9 °F 67% 30.40 in 10.0 mi South 5.8 mph - N/A   Clear
11:53 PM 37.0 °F 34.5 °F 28.0 °F 70% 30.41 in 10.0 mi SSW 3.5 mph - N/A   Clear